Location: ???????
(55.4362°N, 38.1183°E)
Time: 01:43:00
(UTC+00:00)

Cosmos 1932 - Pass Details

Date: 27 October 2021
Orbit: 943 x 987 km, 65.0° (Epoch: 01 December)

Event Time Altitude Azimuth Distance (km) Brightness Sun altitude
Rises 16:59:27 0° 310° (NW) 3,621 8.5 -25.9°
Reaches altitude 10° 17:02:40 10° 294° (WNW) 2,675 7.8 -26.3°
Maximum altitude 17:06:59 20° 250° (WSW) 2,050 6.7 -26.9°
Drops below altitude 10° 17:11:18 10° 206° (SSW) 2,680 6.9 -27.5°
Sets 17:14:32 0° 190° (S) 3,629 7.4 -27.9°
